TimeCST,TemperatureF,Dew PointF,Humidity,Sea Level PressureIn,VisibilityMPH,Wind Direction,Wind SpeedMPH,Gust SpeedMPH,PrecipitationIn,Events,Conditions,WindDirDegrees,DateUTC
12:15 AM,57.2,41.0,55,30.07,10.0,South,6.9,-,N/A,,Overcast,190,2013-01-27 06:15:00
12:35 AM,55.4,42.8,63,30.07,10.0,SSW,4.6,-,N/A,,Overcast,200,2013-01-27 06:35:00
12:55 AM,55.4,44.6,67,30.07,10.0,Calm,Calm,-,N/A,,Overcast,0,2013-01-27 06:55:00
1:15 AM,55.4,42.8,63,30.07,10.0,West,3.5,-,N/A,,Overcast,260,2013-01-27 07:15:00
1:35 AM,53.6,42.8,67,30.07,10.0,West,5.8,-,N/A,,Overcast,260,2013-01-27 07:35:00
1:55 AM,53.6,41.0,62,30.08,10.0,WNW,4.6,-,N/A,,Overcast,290,2013-01-27 07:55:00
2:15 AM,55.4,41.0,58,30.07,10.0,WSW,6.9,-,N/A,,Overcast,240,2013-01-27 08:15:00
2:35 AM,59.0,41.0,51,30.07,10.0,South,12.7,17.3,N/A,,Overcast,190,2013-01-27 08:35:00
2:55 AM,55.4,41.0,58,30.07,10.0,SSW,9.2,-,N/A,,Overcast,200,2013-01-27 08:55:00
3:15 AM,57.2,39.2,51,30.07,10.0,SW,9.2,-,N/A,,Mostly Cloudy,220,2013-01-27 09:15:00
3:35 AM,53.6,39.2,58,30.07,10.0,SSW,8.1,-,N/A,,Mostly Cloudy,210,2013-01-27 09:35:00
3:55 AM,51.8,39.2,62,30.08,10.0,SSW,8.1,-,N/A,,Mostly Cloudy,210,2013-01-27 09:55:00
4:15 AM,48.2,39.2,71,30.08,10.0,WSW,9.2,-,N/A,,Scattered Clouds,250,2013-01-27 10:15:00
4:35 AM,48.2,37.4,66,30.07,10.0,WSW,8.1,-,N/A,,Clear,250,2013-01-27 10:35:00
4:55 AM,46.4,37.4,71,30.07,10.0,West,5.8,-,N/A,,Clear,280,2013-01-27 10:55:00
5:15 AM,46.4,37.4,71,30.07,10.0,NE,5.8,-,N/A,,Clear,50,2013-01-27 11:15:00
5:35 AM,44.6,37.4,76,30.07,10.0,NE,3.5,-,N/A,,Clear,50,2013-01-27 11:35:00
5:55 AM,42.8,35.6,76,30.08,10.0,ENE,3.5,-,N/A,,Clear,60,2013-01-27 11:55:00
6:15 AM,42.8,35.6,76,30.09,10.0,NE,3.5,-,N/A,,Clear,50,2013-01-27 12:15:00
6:35 AM,39.2,35.6,87,30.09,10.0,ENE,3.5,-,N/A,,Clear,70,2013-01-27 12:35:00
6:55 AM,41.0,35.6,81,30.09,10.0,East,3.5,-,N/A,,Clear,80,2013-01-27 12:55:00
7:15 AM,39.2,35.6,87,30.10,10.0,Calm,Calm,-,N/A,,Clear,0,2013-01-27 13:15:00
7:35 AM,37.4,33.8,87,30.11,10.0,NE,3.5,-,N/A,,Clear,50,2013-01-27 13:35:00
7:55 AM,37.4,33.8,87,30.11,10.0,Calm,Calm,-,N/A,,Clear,0,2013-01-27 13:55:00
8:15 AM,37.4,35.6,93,30.10,10.0,NE,3.5,-,N/A,,Clear,50,2013-01-27 14:15:00
8:35 AM,41.0,37.4,87,30.11,10.0,NNE,3.5,-,N/A,,Clear,20,2013-01-27 14:35:00
8:55 AM,46.4,39.2,76,30.11,10.0,Calm,Calm,-,N/A,,Clear,0,2013-01-27 14:55:00
9:15 AM,48.2,41.0,76,30.11,10.0,Calm,Calm,-,N/A,,Clear,0,2013-01-27 15:15:00
9:35 AM,51.8,41.0,67,30.12,10.0,Calm,Calm,-,N/A,,Clear,0,2013-01-27 15:35:00
9:55 AM,53.6,41.0,62,30.13,10.0,SSE,3.5,-,N/A,,Clear,150,2013-01-27 15:55:00
10:15 AM,55.4,41.0,58,30.13,10.0,SE,3.5,-,N/A,,Clear,140,2013-01-27 16:15:00
10:35 AM,59.0,42.8,55,30.13,10.0,South,4.6,-,N/A,,Clear,170,2013-01-27 16:35:00
10:55 AM,60.8,44.6,55,30.13,10.0,SSW,4.6,-,N/A,,Clear,200,2013-01-27 16:55:00
11:15 AM,62.6,44.6,52,30.13,10.0,South,5.8,-,N/A,,Clear,180,2013-01-27 17:15:00
11:35 AM,64.4,42.8,45,30.13,10.0,South,6.9,-,N/A,,Clear,180,2013-01-27 17:35:00
11:55 AM,64.4,42.8,45,30.12,10.0,SSE,5.8,-,N/A,,Clear,150,2013-01-27 17:55:00
12:15 PM,66.2,41.0,40,30.12,10.0,SW,10.4,16.1,N/A,,Scattered Clouds,220,2013-01-27 18:15:00
12:35 PM,68.0,39.2,35,30.10,10.0,SW,15.0,20.7,N/A,,Scattered Clouds,220,2013-01-27 18:35:00
12:55 PM,69.8,33.8,27,30.09,10.0,SW,19.6,24.2,N/A,,Partly Cloudy,230,2013-01-27 18:55:00
1:15 PM,69.8,33.8,27,30.08,10.0,WSW,16.1,23.0,N/A,,Clear,240,2013-01-27 19:15:00
1:35 PM,69.8,33.8,27,30.07,10.0,WSW,19.6,23.0,N/A,,Clear,240,2013-01-27 19:35:00
1:55 PM,69.8,33.8,27,30.06,10.0,SW,13.8,23.0,N/A,,Clear,230,2013-01-27 19:55:00
2:15 PM,69.8,32.0,25,30.05,10.0,SSW,16.1,26.5,N/A,,Clear,210,2013-01-27 20:15:00
2:35 PM,69.8,33.8,27,30.05,10.0,WSW,16.1,-,N/A,,Clear,240,2013-01-27 20:35:00
2:55 PM,69.8,33.8,27,30.04,10.0,SSW,11.5,-,N/A,,Clear,200,2013-01-27 20:55:00
3:15 PM,69.8,33.8,27,30.05,10.0,WSW,16.1,24.2,N/A,,Clear,250,2013-01-27 21:15:00
3:35 PM,71.6,35.6,27,30.04,10.0,SSW,15.0,19.6,N/A,,Clear,200,2013-01-27 21:35:00
3:55 PM,69.8,35.6,28,30.04,10.0,WSW,16.1,-,N/A,,Clear,240,2013-01-27 21:55:00
4:15 PM,68.0,35.6,30,30.04,10.0,SSW,15.0,20.7,N/A,,Clear,200,2013-01-27 22:15:00
4:35 PM,69.8,35.6,28,30.04,10.0,SW,18.4,-,N/A,,Clear,230,2013-01-27 22:35:00
4:55 PM,68.0,35.6,30,30.03,10.0,WSW,11.5,-,N/A,,Clear,240,2013-01-27 22:55:00
5:15 PM,69.8,35.6,28,30.04,10.0,SSW,18.4,23.0,N/A,,Scattered Clouds,210,2013-01-27 23:15:00
5:35 PM,68.0,33.8,28,30.04,10.0,SSW,12.7,-,N/A,,Partly Cloudy,200,2013-01-27 23:35:00
5:55 PM,66.2,33.8,30,30.04,10.0,South,12.7,17.3,N/A,,Clear,190,2013-01-27 23:55:00
6:15 PM,64.4,33.8,32,30.05,10.0,South,9.2,-,N/A,,Clear,190,2013-01-28 00:15:00
6:35 PM,62.6,33.8,34,30.05,10.0,South,8.1,-,N/A,,Clear,170,2013-01-28 00:35:00
6:55 PM,60.8,33.8,36,30.05,10.0,South,4.6,-,N/A,,Clear,190,2013-01-28 00:55:00
7:15 PM,57.2,32.0,38,30.06,10.0,SSE,6.9,-,N/A,,Clear,160,2013-01-28 01:15:00
7:35 PM,55.4,30.2,38,30.06,10.0,SSE,5.8,-,N/A,,Clear,160,2013-01-28 01:35:00
7:55 PM,57.2,30.2,36,30.06,10.0,South,5.8,-,N/A,,Clear,180,2013-01-28 01:55:00
8:15 PM,53.6,30.2,41,30.07,10.0,SE,3.5,-,N/A,,Clear,140,2013-01-28 02:15:00
8:35 PM,48.2,30.2,50,30.06,10.0,East,3.5,-,N/A,,Clear,100,2013-01-28 02:35:00
8:55 PM,48.2,30.2,50,30.06,10.0,ESE,5.8,-,N/A,,Clear,110,2013-01-28 02:55:00
9:15 PM,51.8,30.2,44,30.06,10.0,East,4.6,-,N/A,,Clear,80,2013-01-28 03:15:00
9:35 PM,44.6,30.2,57,30.05,10.0,North,5.8,-,N/A,,Clear,10,2013-01-28 03:35:00
9:55 PM,44.6,30.2,57,30.05,10.0,NNE,3.5,-,N/A,,Clear,20,2013-01-28 03:55:00
10:15 PM,42.8,30.2,61,30.05,10.0,NNE,3.5,-,N/A,,Clear,20,2013-01-28 04:15:00
10:35 PM,42.8,28.4,57,30.04,10.0,North,4.6,-,N/A,,Clear,350,2013-01-28 04:35:00
10:55 PM,42.8,30.2,61,30.04,10.0,Calm,Calm,-,N/A,,Clear,0,2013-01-28 04:55:00
11:15 PM,42.8,30.2,61,30.04,10.0,NNW,3.5,-,N/A,,Clear,340,2013-01-28 05:15:00
11:35 PM,42.8,30.2,61,30.05,10.0,NW,4.6,-,N/A,,Clear,320,2013-01-28 05:35:00
11:55 PM,41.0,30.2,65,30.05,10.0,NW,6.9,-,N/A,,Clear,320,2013-01-28 05:55:00